This is the latest recevied weather packets stored in our database for station/object VK2BLR. If no packets are shown the sender has not sent any weather packets the latest 10 day(s).
| Time | Temp. | Humidity | Pressure | Rain* | Wind** | Luminosity | Snow |
|---|---|---|---|---|---|---|---|
| 1787556092 | 19.44° C | 59% | 1017.7 hPa | 0 mm | - | - | - |
| 1787555191 | 20° C | 58% | 1017.7 hPa | 0 mm | - | - | - |
| 1787554290 | 20° C | 58% | 1017.9 hPa | 0 mm | - | - | - |
| 1787553390 | 20° C | 58% | 1018 hPa | 0 mm | - | - | - |
| 1787552492 | 20.56° C | 56% | 1018 hPa | 0 mm | - | - | - |
| 1787551591 | 20.56° C | 54% | 1018.1 hPa | 0 mm | - | - | - |
| 1787550690 | 21.11° C | 53% | 1018.1 hPa | 0 mm | - | - | - |
| 1787549790 | 21.11° C | 51% | 1018.3 hPa | 0 mm | - | - | - |
| 1787548892 | 21.11° C | 50% | 1018.1 hPa | 0 mm | - | - | - |
| 1787547991 | 21.67° C | 52% | 1018.2 hPa | 0 mm | - | - | - |
| 1787547091 | 21.67° C | 52% | 1018.2 hPa | 0 mm | - | - | - |
| 1787546191 | 21.67° C | 52% | 1018.4 hPa | 0 mm | - | - | - |
| 1787545291 | 21.67° C | 53% | 1018.5 hPa | 0 mm | - | - | - |
| 1787544391 | 21.67° C | 53% | 1018.7 hPa | 0 mm | - | - | - |
| 1787543491 | 21.67° C | 55% | 1018.9 hPa | 0 mm | - | - | - |
| 1787542591 | 21.11° C | 54% | 1018.9 hPa | 0 mm | - | - | - |
| 1787541690 | 21.67° C | 54% | 1019.3 hPa | 0 mm | - | - | - |
| 1787540790 | 21.11° C | 57% | 1019.4 hPa | 0 mm | - | - | - |
| 1787539892 | 21.11° C | 56% | 1019.7 hPa | 0 mm | - | - | - |
| 1787538992 | 21.11° C | 55% | 1020 hPa | 0 mm | - | - | - |
| 1787538091 | 21.11° C | 55% | 1020.3 hPa | 0 mm | - | - | - |
| 1787537190 | 20.56° C | 55% | 1020.7 hPa | 0 mm | - | - | - |
| 1787536291 | 20.56° C | 57% | 1021.1 hPa | 0 mm | - | - | - |
| 1787535391 | 20° C | 59% | 1021.1 hPa | 0 mm | - | - | - |
| 1787534490 | 19.44° C | 60% | 1021.2 hPa | 0 mm | - | - | - |
* Rain latest hour (hover to see other rain measurements)
** Current wind speed in m/s (hover to see current wind gust speed)